Regional Weather Roundup
Issued by NWS

Home | Current Version | Previous Version | Text Only | Print | Product List | Glossary On
Versions: 1 2 3 4 5 6 7 8 9 10 11 12 13 14 15 16 17 18 19 20 21 22 23 24 25 26 27
000
ASUS45 KBOU 272207
RWRCO

WEATHER ROUNDUP FOR COLORADO
NATIONAL WEATHER SERVICE DENVER/BOULDER CO
400 PM MDT FRI MAY 27 2016

NOTE: "FAIR" INDICATES FEW OR NO CLOUDS BELOW 12000 FEET WITH NO
SIGNIFICANT WEATHER AND/OR OBSTRUCTIONS TO VISIBILITY.

COZ001>005-013-030-031-272300-
...NORTHWEST COLORADO...

CITY           SKY/WX    TMP DP  RH WIND       PRES   REMARKS
CRAIG          PTSUNNY   52  40  63 SW12      29.94S
HAYDEN         CLOUDY    48  37  66 SE12      29.95S
MEEKER         TSTM      52  38  58 CALM      29.96S
MOUNT WERNER   NOT AVBL
STEAMBOAT SPGS FAIR      54  37  53 SW7       29.95F
WALDEN         FAIR      54  30  40 N15       29.97R
$$

COZ006>008-011-272300-
...WEST CENTRAL VALLEYS...

CITY           SKY/WX    TMP DP  RH WIND       PRES   REMARKS
GRAND JUNCTION FAIR      65  32  29 N12       29.87F
MONTROSE       FAIR      64  32  30 W20       29.93R
EAGLE          PTSUNNY   61  37  41 W21       29.93F
RIFLE          FAIR      61  38  42 W13       29.91F
DELTA          PTSUNNY   66  35  31 E8        29.90S
NUCLA          FAIR      64  32  29 E3        29.96F
$$

COZ017>023-064>068-272300-
...SOUTHWEST COLORADO...

CITY           SKY/WX    TMP DP  RH WIND       PRES   REMARKS
DURANGO        FAIR      62  30  29 W15G21    29.90F
CORTEZ         FAIR      71  27  19 W12G23    29.90F
PAGOSA SPRINGS FAIR      57  25  29 NE7       29.97S
TELLURIDE      FAIR      47  30  52 SW5       30.10S
WOLF CREEK PAS LGT SNOW  30  28  93 W15G21    30.17R WCI  19
$$

COZ009-010-012-014-032>034-037-058>063-272300-
...CENTRAL COLORADO...

CITY           SKY/WX    TMP DP  RH WIND       PRES   REMARKS
ASPEN          FAIR      54  32  43 N17       29.97F
BUENA VISTA    FAIR      60  19  20 NW5G10    29.91S
COPPER MTN     NOT AVBL
BERTHOUD PASS  PTSUNNY   27  16  63 N16       30.12R WCI  14
COTTONWOOD PAS FAIR      57  10  15 N6        30.00S
GUNNISON       CLOUDY    54  25  32 W9G21     29.98R
KREMMLING      FAIR      57  23  26 N15G23    29.95R
LEADVILLE      LGT SNOW  35  30  82 N12G30    30.05R VSB 1   WCI  27
MONARCH PASS   FAIR      39  21  48 N13G23    30.22S
SALIDA         FAIR      61  25  25 S5        29.98S
SUNLIGHT       CLOUDY    37  36  93 CALM      30.14F
WILKERSON PASS SNOW      32  32 100 N10G16    30.11R VSB 1/4 WCI  24
$$

COZ069>075-272300-
...SAN LUIS VALLEY/SANGRE DE CRISTO MOUNTAINS...

CITY           SKY/WX    TMP DP  RH WIND       PRES   REMARKS
ALAMOSA        LGT RAIN  40  35  83 SW12      29.97R
LA VETA PASS   CLOUDY    41  36  81 NE5       30.05F
SAGUACHE       PTSUNNY   59  27  29 N14G23    29.92S
$$

COZ035-036-038>040-272300-
...NORTHERN COLORADO FRONT RANGE...

CITY           SKY/WX    TMP DP  RH WIND       PRES   REMARKS
DENVER INTL AP PTSUNNY   57  43  59 N13G26    29.89F
DMNS CITY PARK   N/A     57  40  52 NE8G18    29.90S
AURORA         PTSUNNY   53  45  73 NE10      29.90F
FRONT RANGE AP PTSUNNY   57  45  62 N9G24     29.90F
ERIE MUNI ARPT FAIR      57  44  61 E6        29.90S
BOULDER MUN AP LGT RAIN  55  45  67 E8        29.90R
CENTENNIAL     PTSUNNY   54  39  57 N14G23    29.91F
BROOMFIELD     PTSUNNY   57  45  62 NE12      29.92R
FORT COLLINS   FAIR      36 N/A N/A E10G20    29.90S
LONGMONT       FAIR      61  46  57 E9        29.91F
$$

COZ041-046-047-076>085-087-088-272300-
...PIKES PEAK/PALMER DIVIDE AND SOUTHERN FOOTHILLS...

CITY           SKY/WX    TMP DP  RH WIND       PRES   REMARKS
COLO. SPRINGS  PTSUNNY   57  38  48 N25G31    29.90F
A. F. ACADEMY  PTSUNNY   54  37  54 NW18G26   29.91F
SCHRIEVER AFB  NOT AVBL
ELLICOTT       FAIR     N/A N/A N/A N29G35    29.87S
FALCON         FAIR      51  37  60 N22G29    29.93R
FORT CARSON    FAIR      58  41  52 N24G32    29.87S
LIMON          PTSUNNY   52  46  80 N18       29.87R
MONUMENT HILL  FAIR      50  41  71 N16G22    29.95S
TRINIDAD       FAIR      59  40  49 N14       29.89R
$$

COZ042>045-048>051-090-091-272300-
...NORTHEAST COLORADO...

CITY           SKY/WX    TMP DP  RH WIND       PRES   REMARKS
GREELEY ARPT   FAIR      61  43  51 NE15G22   29.88S
AKRON          FAIR      56  44  64 N25G33    29.85S
BURLINGTON     TSTM      56  51  84 NW16G26   29.79R
WRAY           CLOUDY    55  52  88 N23G31    29.80R
STERLING       FAIR      59  46  63 NE14G23   29.85S
HOLYOKE        RAIN      54  48  82 N17       29.83
FORT MORGAN    FAIR      60  44  55 N20G25    29.87S
$$

COZ086-089-092>099-272300-
...SOUTHEAST COLORADO...

CITY           SKY/WX    TMP DP  RH WIND       PRES   REMARKS
PUEBLO         LGT RAIN  64  40  41 N33G39    29.82F
LA JUNTA       PTSUNNY   64  45  49 N29G37    29.80R
LAMAR          PTSUNNY   60  49  66 N23G32    29.73R
SPRINGFIELD      N/A     63  46  54 NW32G43   29.75R
$$




USA.gov is the U.S. government's official web portal to all federal, state and local government web resources and services.